Location: Ceske Budejovice
(48.9830°N, 14.4670°E)
Time: 09:49:59
(UTC+02:00)

ISS - Pass Details

Date: 29 April 2024
Orbit: 409 x 414 km, 51.6° (Epoch: 21 May)

Event Time Altitude Azimuth Distance (km) Brightness Sun altitude
Exits shadow 03:04:38 31° 114° (ESE) 749 -2.5 -20.7°
Drops below altitude 10° 03:06:54 10° 79° (E) 1,479 -0.4 -20.5°
Sets 03:09:05 0° 71° (ENE) 2,342 0.9 -20.3°
